Flag for U.S.A. Weather past 2 weeks in Denver, Colorado, U.S.A.

Now
10 °F

Light snow. Ice fog.


Feels Like: 10 °F
Forecast: 8 / 19 °F
Wind: 1 mph from Northeast

Location: Buckley Air Force Base

Current Time: Mar 4, 2015 at 9:09:06 AM

Latest Report: Mar 4, 2015 at 7:58 AM


Visibility: 3 mi

Pressure: 30.30 "Hg

Humidity: 89%

Dew point: 8 °F

Location of DenverLocation

Historic Weather in Denver — Graph

°F

Denver temperature yesterday

Maximum temperature yesterday: 34 °F (at 3:58 AM)
Minimum temperature yesterday: 16 °F (at 11:58 PM)
Average temperature yesterday: 22 °F

Past Weeks' High & Low Weather Summary

 TemperatureHumidityPressure
High60 °F (Feb 19, 3:58 PM)100% (Feb 21, 12:58 AM)30.58 "Hg (Feb 21, 12:58 AM)
Low0 °F (Feb 27, 4:58 AM)21% (Feb 19, 3:58 PM)29.57 "Hg (Mar 2, 11:58 PM)
Average22 °F73%30.12 "Hg
* Reported Feb 17 7:58 AM — Mar 4 7:58 AM, Denver, Weather by CustomWeather, © 2015

Note: Actual official high and low records may vary slightly from our data, if they occured in-between our weather recording intervals... More about our weather records

Advertising

Denver weather history for previous 24 hours

 ConditionsComfort  
Time TempWeatherWind HumidityBarometerVisibility
7:58 AM
Wed, Mar 4
10 °FLight snow. Ice fog.1 mph89%30.30 "Hg3 mi
6:58 AM9 °FLight snow. Ice fog.5 mph91%30.27 "Hg3 mi
5:58 AM9 °FLight snow. Mostly cloudy.2 mph92%30.25 "Hg7 mi
4:58 AM10 °FLight snow. Ice fog.2 mph91%30.23 "Hg5 mi
3:58 AM10 °FLight snow. Ice fog.10 mph91%30.21 "Hg5 mi
2:58 AM11 °FLight snow. Ice fog.12 mph93%30.16 "Hg2 mi
1:58 AM12 °FLight snow. Ice fog.12 mph92%30.14 "Hg2 mi
12:58 AM15 °FLight snow. Ice fog.12 mph95%30.10 "Hg2 mi
11:58 PM
Tue, Mar 3
16 °FLight snow. Ice fog.7 mph95%30.06 "Hg2 mi
10:58 PM17 °FLight snow. Ice fog.5 mph96%30.05 "Hg2 mi
9:58 PM17 °FLight snow. Ice fog.6 mph97%30.03 "Hg1 mi
8:58 PM18 °FLight snow. Ice fog.6 mph96%29.99 "Hg1 mi
7:58 PM18 °FLight snow. Ice fog.6 mph95%29.97 "Hg1 mi
7:03 PM18 °FLight snow. Mostly cloudy.7 mph93%29.84 "Hg7 mi
6:58 PM18 °FMostly cloudy.6 mph91%29.96 "Hg10 mi
5:58 PM18 °FMostly cloudy.3 mph90%29.89 "Hg7 mi
4:58 PM18 °FMostly cloudy.3 mph85%29.88 "Hg7 mi
3:58 PM18 °FLow clouds.2 mph84%29.89 "Hg7 mi
2:58 PM18 °FLight snow. Low clouds.6 mph85%29.89 "Hg7 mi
1:58 PM18 °FLight snow. Ice fog.6 mph84%29.90 "Hg3 mi
12:58 PM18 °FLight snow. Ice fog.8 mph85%29.92 "Hg1 mi
11:58 AM19 °FLight snow. Ice fog.13 mph83%29.91 "Hg4 mi
10:58 AM19 °FLight snow. Ice fog.12 mph85%29.97 "Hg4 mi
9:58 AM21 °FLight snow. Ice fog.13 mph86%29.98 "Hg4 mi
Weather by CustomWeather, © 2015

See weather overviewHow to use our weather pages